Regional Weather Roundup
Issued by NWS

Home | Current Version | Previous Version | Text Only | Print | Product List | Glossary Off
Versions: 1 2 3 4 5 6 7 8 9 10 11 12 13 14 15 16 17 18 19 20 21 22 23 24 25 26 27 28 29 30 31 32 33 34 35 36 37 38 39 40 41 42 43 44 45 46 47 48 49 50

000
ASUS45 KCYS 011610
RWRWY

WYOMING REGIONAL WEATHER ROUNDUP
NATIONAL WEATHER SERVICE CHEYENNE WY
1000 AM MDT WED JUL 01 2015

NOTE:  "FAIR" INDICATES FEW OR NO CLOUDS BELOW 12,000 FEET
WITH NO SIGNIFICANT WEATHER AND/OR OBSTRUCTIONS TO VISIBILITY.

WYZ001-011700-
YELLOWSTONE NATIONAL PARK

CITY           SKY/WX    TMP DP  RH WIND       PRES   REMARKS
LK YELLOWSTONE   N/A     61  51  70 VRB5      30.36S
W YELLOWSTONE  NOT AVBL

$$
WYZ002>013-054>058-071-098>099-011700-
NORTHERN WYOMING

CITY           SKY/WX    TMP DP  RH WIND       PRES   REMARKS
JACKSON        FAIR      66  50  55 CALM      30.25F
CODY           FAIR      75  48  38 CALM      30.13F
GREYBULL       FAIR      80  51  36 SW5       30.05F
WORLAND        FAIR      76  53  44 VRB3      30.07S
SHERIDAN       FAIR      80  54  40 CALM      30.07F
BUFFALO        FAIR      78  47  33 NE6       30.14F
GILLETTE       FAIR      79  53  40 NW6       30.09S
HULETT         FAIR      73  55  53 NW8       30.09S HAZE
NEWCASTLE      FAIR      79  48  34 NW14      30.07S

$$
WYZ014>020-022>026-101>103-011700-
CENTRAL WYOMING

CITY           SKY/WX    TMP DP  RH WIND       PRES   REMARKS
BIG PINEY      FAIR      75  50  41 SW7       30.30S
PINEDALE       FAIR      72  46  40 NW5       30.30F
DUBOIS         FAIR      72  45  37 E3        30.27F
LANDER         FAIR      77  56  48 E5        30.15F
RIVERTON       FAIR      72  57  59 E7        30.16F
CASPER         FAIR      75  51  43 SW5       30.15F
DOUGLAS        FAIR      77  53  43 VRB3      30.14F

$$
WYZ021-027>030-104>119-011700-
SOUTHERN WYOMING

CITY           SKY/WX    TMP DP  RH WIND       PRES   REMARKS
EVANSTON       FAIR      74  48  39 VRB7      30.31S
KEMMERER       FAIR      75  46  35 NW7       30.32S
FORT BRIDGER   SUNNY     79  43  27 NW7       30.33S
ROCK SPRINGS   FAIR      74  54  49 NW5       30.27S
DIXON          FAIR      73  50  44 CALM      30.28F
RAWLINS        FAIR      73  54  51 CALM      30.28S
SARATOGA       FAIR      73  48  40 CALM      30.30S
LARAMIE        FAIR      71  49  45 W5        30.30F
CHEYENNE       FAIR      77  53  43 NE13      30.21S
TORRINGTON     FAIR      83  50  31 NW9       30.06S
PINE BLUFFS    FAIR      79  55  44 N14       30.15S

$$


USA.gov is the U.S. government's official web portal to all federal, state and local government web resources and services.